Time,TemperatureF,DewpointF,PressureIn,WindDirection,WindDirectionDegrees,WindSpeedMPH,WindSpeedGustMPH,Humidity,HourlyPrecipIn,Conditions,Clouds,dailyrainin,SoftwareType,DateUTC
2013-02-04 00:03:00,31.0,25.0,30.00,North,5,0.0,0.0,79,0.00,,,0.00,,2013-02-04 05:03:00,
2013-02-04 00:22:00,30.0,25.0,30.01,North,5,0.0,0.0,80,0.00,,,0.00,,2013-02-04 05:22:00,
2013-02-04 00:33:00,30.0,25.0,30.00,North,5,0.0,0.0,81,0.00,,,0.00,,2013-02-04 05:33:00,
2013-02-04 00:42:00,30.0,25.0,30.00,North,5,0.0,0.0,81,0.00,,,0.00,,2013-02-04 05:42:00,
2013-02-04 00:52:00,30.0,25.0,30.00,North,5,0.0,0.0,81,0.00,,,0.00,,2013-02-04 05:52:00,
2013-02-04 01:02:00,29.0,24.0,30.01,North,5,0.0,3.0,82,0.00,,,0.00,,2013-02-04 06:02:00,
2013-02-04 01:11:00,29.0,24.0,30.01,North,5,0.0,3.0,82,0.00,,,0.00,,2013-02-04 06:11:00,
2013-02-04 01:21:00,29.0,24.0,30.01,North,5,0.0,1.0,82,0.00,,,0.00,,2013-02-04 06:21:00,
2013-02-04 01:32:00,29.0,24.0,30.00,North,5,0.0,2.0,82,0.00,,,0.00,,2013-02-04 06:32:00,
2013-02-04 01:42:00,29.0,24.0,30.00,North,5,0.0,2.0,82,0.00,,,0.00,,2013-02-04 06:42:00,
2013-02-04 01:52:00,29.0,25.0,30.01,North,5,0.0,0.0,83,0.00,,,0.00,,2013-02-04 06:52:00,
2013-02-04 02:02:00,28.0,24.0,30.01,North,5,0.0,0.0,83,0.00,,,0.00,,2013-02-04 07:02:00,
2013-02-04 02:11:00,28.0,24.0,30.01,North,5,0.0,0.0,83,0.00,,,0.00,,2013-02-04 07:11:00,
2013-02-04 02:21:00,28.0,24.0,30.01,North,5,0.0,0.0,84,0.00,,,0.00,,2013-02-04 07:21:00,
2013-02-04 02:32:00,28.0,24.0,30.01,North,5,0.0,0.0,85,0.00,,,0.00,,2013-02-04 07:32:00,
2013-02-04 02:42:00,28.0,24.0,30.01,North,5,0.0,0.0,85,0.00,,,0.00,,2013-02-04 07:42:00,
2013-02-04 02:52:00,28.0,24.0,30.01,North,5,0.0,0.0,86,0.00,,,0.00,,2013-02-04 07:52:00,
2013-02-04 03:01:00,27.0,23.0,30.01,North,5,0.0,3.0,85,0.00,,,0.00,,2013-02-04 08:01:00,
2013-02-04 03:11:00,27.0,23.0,30.01,North,5,0.0,3.0,85,0.00,,,0.00,,2013-02-04 08:11:00,
2013-02-04 03:21:00,27.0,23.0,30.01,North,5,0.0,0.0,86,0.00,,,0.00,,2013-02-04 08:21:00,
2013-02-04 03:32:00,27.0,23.0,30.01,North,5,0.0,0.0,85,0.00,,,0.00,,2013-02-04 08:32:00,
2013-02-04 03:42:00,27.0,23.0,30.01,North,5,0.0,0.0,85,0.00,,,0.00,,2013-02-04 08:42:00,
2013-02-04 03:52:00,27.0,23.0,30.02,North,5,0.0,0.0,85,0.00,,,0.00,,2013-02-04 08:52:00,
2013-02-04 04:02:00,27.0,23.0,30.02,North,5,0.0,0.0,85,0.00,,,0.00,,2013-02-04 09:02:00,
2013-02-04 04:11:00,27.0,23.0,30.02,North,5,0.0,0.0,85,0.00,,,0.00,,2013-02-04 09:11:00,
2013-02-04 04:21:00,27.0,23.0,30.03,North,5,0.0,0.0,86,0.00,,,0.00,,2013-02-04 09:21:00,
2013-02-04 04:32:00,27.0,23.0,30.02,North,5,0.0,0.0,86,0.00,,,0.00,,2013-02-04 09:32:00,
2013-02-04 04:42:00,27.0,23.0,30.02,North,5,0.0,0.0,86,0.00,,,0.00,,2013-02-04 09:42:00,
2013-02-04 04:52:00,27.0,23.0,30.01,North,5,0.0,0.0,85,0.00,,,0.00,,2013-02-04 09:52:00,
2013-02-04 05:01:00,27.0,23.0,30.02,North,5,0.0,0.0,85,0.00,,,0.00,,2013-02-04 10:01:00,
2013-02-04 05:11:00,27.0,23.0,30.02,North,5,0.0,0.0,85,0.00,,,0.00,,2013-02-04 10:11:00,
2013-02-04 05:21:00,27.0,23.0,30.02,North,5,0.0,0.0,85,0.00,,,0.00,,2013-02-04 10:21:00,
2013-02-04 05:32:00,27.0,23.0,30.02,North,5,0.0,0.0,85,0.00,,,0.00,,2013-02-04 10:32:00,
2013-02-04 05:42:00,27.0,23.0,30.02,North,5,0.0,0.0,85,0.00,,,0.00,,2013-02-04 10:42:00,
2013-02-04 05:52:00,27.0,23.0,30.02,North,5,0.0,0.0,83,0.00,,,0.00,,2013-02-04 10:52:00,
2013-02-04 06:02:00,28.0,24.0,30.02,North,5,0.0,0.0,84,0.00,,,0.00,,2013-02-04 11:02:00,
2013-02-04 06:11:00,28.0,24.0,30.02,North,5,0.0,0.0,84,0.00,,,0.00,,2013-02-04 11:11:00,
2013-02-04 06:22:00,28.0,24.0,30.02,North,5,0.0,0.0,85,0.00,,,0.00,,2013-02-04 11:22:00,
2013-02-04 06:32:00,28.0,24.0,30.02,North,5,0.0,0.0,86,0.00,,,0.00,,2013-02-04 11:32:00,
2013-02-04 06:42:00,28.0,24.0,30.02,North,5,0.0,0.0,86,0.00,,,0.00,,2013-02-04 11:42:00,
2013-02-04 06:52:00,28.0,24.0,30.03,North,5,0.0,0.0,86,0.00,,,0.00,,2013-02-04 11:52:00,
2013-02-04 07:02:00,28.0,24.0,30.03,North,5,0.0,0.0,85,0.00,,,0.00,,2013-02-04 12:02:00,
2013-02-04 07:12:00,28.0,24.0,30.03,North,5,0.0,0.0,85,0.00,,,0.00,,2013-02-04 12:12:00,
2013-02-04 07:22:00,28.0,24.0,30.04,North,5,0.0,0.0,85,0.00,,,0.00,,2013-02-04 12:22:00,
2013-02-04 07:32:00,28.0,24.0,30.04,North,5,0.0,0.0,85,0.00,,,0.00,,2013-02-04 12:32:00,
2013-02-04 07:42:00,28.0,24.0,30.04,North,5,0.0,0.0,85,0.00,,,0.00,,2013-02-04 12:42:00,
2013-02-04 07:53:00,29.0,25.0,30.06,North,5,0.0,0.0,83,0.00,,,0.00,,2013-02-04 12:53:00,
2013-02-04 08:03:00,29.0,25.0,30.07,North,5,0.0,0.0,85,0.00,,,0.00,,2013-02-04 13:03:00,
2013-02-04 08:12:00,30.0,26.0,30.07,North,5,0.0,0.0,84,0.00,,,0.00,,2013-02-04 13:12:00,
2013-02-04 08:22:00,30.0,26.0,30.07,North,5,0.0,0.0,84,0.00,,,0.00,,2013-02-04 13:22:00,
2013-02-04 08:33:00,30.0,25.0,30.06,North,5,0.0,0.0,82,0.00,,,0.00,,2013-02-04 13:33:00,
2013-02-04 08:42:00,30.0,25.0,30.06,North,5,0.0,0.0,82,0.00,,,0.00,,2013-02-04 13:42:00,
2013-02-04 08:52:00,30.0,25.0,30.08,North,5,0.0,0.0,82,0.00,,,0.00,,2013-02-04 13:52:00,
2013-02-04 09:03:00,31.0,26.0,30.08,North,5,1.0,3.0,80,0.00,,,0.00,,2013-02-04 14:03:00,
2013-02-04 09:12:00,31.0,26.0,30.08,North,5,1.0,3.0,80,0.00,,,0.00,,2013-02-04 14:12:00,
2013-02-04 09:23:00,32.0,26.0,30.09,North,5,0.0,1.0,78,0.00,,,0.00,,2013-02-04 14:23:00,
2013-02-04 09:33:00,33.0,27.0,30.10,North,5,0.0,1.0,77,0.00,,,0.00,,2013-02-04 14:33:00,
2013-02-04 09:42:00,33.0,27.0,30.10,North,5,0.0,1.0,77,0.00,,,0.00,,2013-02-04 14:42:00,
2013-02-04 09:52:00,34.0,27.0,30.09,North,5,0.0,2.0,74,0.00,,,0.00,,2013-02-04 14:52:00,
2013-02-04 10:03:00,35.0,26.0,30.09,North,5,0.0,1.0,68,0.00,,,0.00,,2013-02-04 15:03:00,
2013-02-04 10:13:00,35.0,26.0,30.09,North,5,0.0,1.0,68,0.00,,,0.00,,2013-02-04 15:13:00,
2013-02-04 10:24:00,37.0,27.0,30.09,North,5,0.0,3.0,67,0.00,,,0.00,,2013-02-04 15:24:00,
2013-02-04 10:33:00,38.0,26.0,30.10,North,5,2.0,6.0,61,0.00,,,0.00,,2013-02-04 15:33:00,
2013-02-04 10:43:00,38.0,26.0,30.10,North,5,2.0,6.0,61,0.00,,,0.00,,2013-02-04 15:43:00,
2013-02-04 10:53:00,38.0,26.0,30.10,North,5,2.0,6.0,61,0.00,,,0.00,,2013-02-04 15:53:00,
2013-02-04 11:03:00,38.0,26.0,30.10,North,5,2.0,6.0,61,0.00,,,0.00,,2013-02-04 16:03:00,
2013-02-04 11:11:00,38.0,26.0,30.10,North,5,2.0,6.0,61,0.00,,,0.00,,2013-02-04 16:11:00,
2013-02-04 11:23:00,40.0,27.0,30.11,North,5,0.0,4.0,60,0.00,,,0.00,,2013-02-04 16:23:00,
2013-02-04 11:33:00,41.0,27.0,30.10,North,5,1.0,7.0,56,0.00,,,0.00,,2013-02-04 16:33:00,
2013-02-04 11:43:00,41.0,27.0,30.10,North,5,1.0,7.0,56,0.00,,,0.00,,2013-02-04 16:43:00,
2013-02-04 11:52:00,42.0,27.0,30.10,North,5,2.0,7.0,54,0.00,,,0.00,,2013-02-04 16:52:00,
2013-02-04 12:02:00,43.0,27.0,30.09,North,5,3.0,6.0,52,0.00,,,0.00,,2013-02-04 17:02:00,
2013-02-04 12:11:00,43.0,27.0,30.09,North,5,3.0,6.0,52,0.00,,,0.00,,2013-02-04 17:11:00,
2013-02-04 12:21:00,43.0,27.0,30.09,North,5,3.0,6.0,52,0.00,,,0.00,,2013-02-04 17:21:00,
2013-02-04 12:32:00,43.0,27.0,30.08,North,5,1.0,7.0,52,0.00,,,0.00,,2013-02-04 17:32:00,
2013-02-04 12:42:00,43.0,27.0,30.08,North,5,1.0,7.0,52,0.00,,,0.00,,2013-02-04 17:42:00,
2013-02-04 12:51:00,46.0,27.0,30.08,North,5,2.0,8.0,47,0.00,,,0.00,,2013-02-04 17:51:00,
2013-02-04 13:03:00,47.0,27.0,30.07,North,5,1.0,7.0,46,0.00,,,0.00,,2013-02-04 18:03:00,
2013-02-04 13:11:00,47.0,27.0,30.07,North,5,1.0,7.0,46,0.00,,,0.00,,2013-02-04 18:11:00,
2013-02-04 13:22:00,49.0,25.0,30.05,North,5,1.0,7.0,38,0.00,,,0.00,,2013-02-04 18:22:00,
2013-02-04 13:32:00,49.0,25.0,30.05,North,5,3.0,7.0,39,0.00,,,0.00,,2013-02-04 18:32:00,
2013-02-04 13:42:00,49.0,25.0,30.05,North,5,3.0,7.0,39,0.00,,,0.00,,2013-02-04 18:42:00,
2013-02-04 13:52:00,49.0,25.0,30.04,North,5,2.0,8.0,38,0.00,,,0.00,,2013-02-04 18:52:00,
2013-02-04 14:02:00,49.0,25.0,30.04,North,5,2.0,8.0,39,0.00,,,0.00,,2013-02-04 19:02:00,
2013-02-04 14:12:00,49.0,25.0,30.04,North,5,2.0,8.0,39,0.00,,,0.00,,2013-02-04 19:12:00,
2013-02-04 14:22:00,49.0,25.0,30.03,North,5,4.0,7.0,38,0.00,,,0.00,,2013-02-04 19:22:00,
2013-02-04 14:32:00,50.0,24.0,30.03,North,5,5.0,10.0,36,0.00,,,0.00,,2013-02-04 19:32:00,
2013-02-04 14:42:00,50.0,24.0,30.03,North,5,5.0,10.0,36,0.00,,,0.00,,2013-02-04 19:42:00,
2013-02-04 14:52:00,50.0,24.0,30.02,North,5,2.0,7.0,36,0.00,,,0.00,,2013-02-04 19:52:00,
2013-02-04 15:02:00,50.0,25.0,30.02,North,5,3.0,9.0,37,0.00,,,0.00,,2013-02-04 20:02:00,
2013-02-04 15:12:00,50.0,25.0,30.02,North,5,3.0,9.0,37,0.00,,,0.00,,2013-02-04 20:12:00,
2013-02-04 15:22:00,50.0,25.0,30.01,North,5,2.0,5.0,38,0.00,,,0.00,,2013-02-04 20:22:00,
2013-02-04 15:32:00,50.0,25.0,30.01,North,5,2.0,9.0,38,0.00,,,0.00,,2013-02-04 20:32:00,
2013-02-04 15:42:00,50.0,25.0,30.01,North,5,2.0,9.0,38,0.00,,,0.00,,2013-02-04 20:42:00,
2013-02-04 15:52:00,50.0,26.0,30.00,North,5,3.0,7.0,39,0.00,,,0.00,,2013-02-04 20:52:00,
2013-02-04 16:03:00,50.0,26.0,30.00,North,5,4.0,9.0,39,0.00,,,0.00,,2013-02-04 21:03:00,
2013-02-04 16:12:00,50.0,26.0,30.00,North,5,4.0,9.0,39,0.00,,,0.00,,2013-02-04 21:12:00,
2013-02-04 16:22:00,49.0,26.0,30.00,North,5,2.0,7.0,40,0.00,,,0.00,,2013-02-04 21:22:00,
2013-02-04 16:32:00,49.0,25.0,30.00,North,5,3.0,9.0,39,0.00,,,0.00,,2013-02-04 21:32:00,
2013-02-04 16:43:00,49.0,25.0,30.00,North,5,3.0,9.0,39,0.00,,,0.00,,2013-02-04 21:43:00,
2013-02-04 16:52:00,49.0,26.0,30.00,North,5,1.0,5.0,40,0.00,,,0.00,,2013-02-04 21:52:00,
2013-02-04 17:03:00,49.0,26.0,30.01,North,5,1.0,7.0,41,0.00,,,0.00,,2013-02-04 22:03:00,
2013-02-04 17:12:00,49.0,26.0,30.01,North,5,1.0,7.0,41,0.00,,,0.00,,2013-02-04 22:12:00,
2013-02-04 17:21:00,48.0,25.0,30.00,North,5,3.0,6.0,41,0.00,,,0.00,,2013-02-04 22:21:00,
2013-02-04 17:32:00,48.0,26.0,30.00,North,5,0.0,5.0,42,0.00,,,0.00,,2013-02-04 22:32:00,
2013-02-04 17:42:00,48.0,26.0,30.00,North,5,0.0,5.0,42,0.00,,,0.00,,2013-02-04 22:42:00,
2013-02-04 17:52:00,48.0,26.0,30.00,North,5,1.0,6.0,42,0.00,,,0.00,,2013-02-04 22:52:00,
2013-02-04 18:02:00,47.0,25.0,30.00,North,5,2.0,6.0,42,0.00,,,0.00,,2013-02-04 23:02:00,
2013-02-04 18:11:00,47.0,25.0,30.00,North,5,2.0,6.0,42,0.00,,,0.00,,2013-02-04 23:11:00,
2013-02-04 18:22:00,47.0,26.0,29.99,North,5,1.0,4.0,44,0.00,,,0.00,,2013-02-04 23:22:00,
2013-02-04 18:32:00,46.0,26.0,29.99,North,5,1.0,3.0,45,0.00,,,0.00,,2013-02-04 23:32:00,
2013-02-04 18:42:00,46.0,26.0,29.99,North,5,1.0,3.0,45,0.00,,,0.00,,2013-02-04 23:42:00,
2013-02-04 18:52:00,45.0,26.0,30.00,North,5,0.0,3.0,47,0.00,,,0.00,,2013-02-04 23:52:00,
2013-02-04 19:02:00,45.0,27.0,30.00,North,5,0.0,3.0,50,0.00,,,0.00,,2013-02-05 00:02:00,
2013-02-04 19:12:00,45.0,27.0,30.00,North,5,0.0,3.0,50,0.00,,,0.00,,2013-02-05 00:12:00,
2013-02-04 19:22:00,44.0,26.0,30.00,North,5,1.0,4.0,49,0.00,,,0.00,,2013-02-05 00:22:00,
2013-02-04 19:32:00,44.0,28.0,30.00,North,5,0.0,2.0,52,0.00,,,0.00,,2013-02-05 00:32:00,
2013-02-04 19:42:00,44.0,28.0,30.00,North,5,0.0,2.0,52,0.00,,,0.00,,2013-02-05 00:42:00,
2013-02-04 19:52:00,43.0,28.0,30.00,North,5,1.0,5.0,56,0.00,,,0.00,,2013-02-05 00:52:00,
2013-02-04 20:02:00,42.0,29.0,30.00,North,5,0.0,2.0,59,0.00,,,0.00,,2013-02-05 01:02:00,
2013-02-04 20:12:00,42.0,29.0,30.00,North,5,0.0,2.0,59,0.00,,,0.00,,2013-02-05 01:12:00,
2013-02-04 20:22:00,40.0,29.0,30.00,North,5,0.0,0.0,64,0.00,,,0.00,,2013-02-05 01:22:00,
2013-02-04 20:32:00,39.0,28.0,30.01,North,5,0.0,3.0,64,0.00,,,0.00,,2013-02-05 01:32:00,
2013-02-04 20:42:00,39.0,28.0,30.01,North,5,0.0,3.0,64,0.00,,,0.00,,2013-02-05 01:42:00,
2013-02-04 20:52:00,39.0,28.0,30.01,North,5,0.0,3.0,65,0.00,,,0.00,,2013-02-05 01:52:00,
2013-02-04 21:01:00,39.0,28.0,30.01,North,5,0.0,5.0,65,0.00,,,0.00,,2013-02-05 02:01:00,
2013-02-04 21:11:00,39.0,28.0,30.01,North,5,0.0,5.0,65,0.00,,,0.00,,2013-02-05 02:11:00,
2013-02-04 21:22:00,39.0,28.0,30.00,North,5,0.0,3.0,65,0.00,,,0.00,,2013-02-05 02:22:00,
2013-02-04 21:32:00,40.0,29.0,30.01,North,5,0.0,5.0,64,0.00,,,0.00,,2013-02-05 02:32:00,
2013-02-04 21:42:00,40.0,29.0,30.01,North,5,0.0,5.0,64,0.00,,,0.00,,2013-02-05 02:42:00,
2013-02-04 21:52:00,40.0,29.0,30.02,North,5,1.0,3.0,65,0.00,,,0.00,,2013-02-05 02:52:00,
2013-02-04 22:02:00,40.0,30.0,30.02,North,5,1.0,4.0,66,0.00,,,0.00,,2013-02-05 03:02:00,
2013-02-04 22:11:00,40.0,30.0,30.02,North,5,1.0,4.0,66,0.00,,,0.00,,2013-02-05 03:11:00,
2013-02-04 22:21:00,39.0,30.0,30.02,North,5,0.0,1.0,69,0.00,,,0.00,,2013-02-05 03:21:00,
2013-02-04 22:32:00,38.0,29.0,30.01,North,5,0.0,0.0,71,0.00,,,0.00,,2013-02-05 03:32:00,
2013-02-04 22:42:00,38.0,29.0,30.01,North,5,0.0,0.0,71,0.00,,,0.00,,2013-02-05 03:42:00,
2013-02-04 22:51:00,37.0,29.0,30.01,North,5,0.0,0.0,74,0.00,,,0.00,,2013-02-05 03:51:00,
2013-02-04 23:01:00,36.0,29.0,30.01,North,5,0.0,0.0,76,0.00,,,0.00,,2013-02-05 04:01:00,
2013-02-04 23:11:00,36.0,29.0,30.01,North,5,0.0,0.0,76,0.00,,,0.00,,2013-02-05 04:11:00,
2013-02-04 23:22:00,36.0,30.0,30.01,North,5,0.0,1.0,78,0.00,,,0.00,,2013-02-05 04:22:00,
2013-02-04 23:32:00,36.0,30.0,30.00,North,5,0.0,0.0,80,0.00,,,0.00,,2013-02-05 04:32:00,
2013-02-04 23:42:00,36.0,30.0,30.00,North,5,0.0,0.0,80,0.00,,,0.00,,2013-02-05 04:42:00,
2013-02-04 23:52:00,36.0,31.0,30.00,North,5,0.0,0.0,82,0.00,,,0.00,,2013-02-05 04:52:00,